Wind_Speed
23 21 20 19 18 18 19 19 19 20 20 20 21 20 19 19 18 17 17 17 15 14 14 14 15 15 17 19 19 15 11 8 6 4 4 3 3 4 6 12 19 27
27 25 22 21 20 20 20 20 20 19 19 20 21 20 19 20 20 19 20 20 17 14 13 13 13 14 15 18 19 17 15 14 10 7 6 5 5 5 6 10 15 21
31 27 24 23 22 22 22 22 20 19 19 20 21 20 19 19 20 19 20 23 22 16 14 13 11 12 14 15 17 17 17 17 15 11 8 7 6 6 8 10 13 17
31 28 25 25 26 24 24 24 23 21 20 20 21 21 20 18 18 18 19 22 24 22 19 15 11 12 13 13 15 16 16 17 17 15 12 9 8 8 8 10 12 15
32 29 27 28 29 28 28 28 27 25 24 23 22 22 21 20 19 19 19 20 22 24 23 18 14 12 11 11 12 14 14 13 15 16 15 12 10 8 7 9 10 13
36 34 32 33 33 32 32 32 30 29 28 26 24 24 24 23 21 20 21 21 19 20 20 19 19 17 14 10 10 12 13 12 11 12 13 13 12 11 8 7 7 8
38 37 37 37 36 35 34 33 33 32 30 27 25 25 26 26 24 22 22 22 21 18 16 17 20 21 20 14 9 10 13 13 11 9 9 9 10 10 10 9 6 4
40 40 40 40 39 38 37 34 34 34 32 29 27 26 26 26 24 23 23 22 23 22 18 16 18 20 23 21 15 11 12 14 13 10 7 7 7 7 7 8 7 5
42 43 43 42 41 40 39 36 36 36 33 31 29 27 25 23 21 22 25 24 24 24 22 18 17 19 23 25 24 19 14 13 14 11 8 8 8 9 8 7 6 6
44 46 45 43 42 42 41 39 39 38 36 34 32 29 25 24 23 23 26 26 25 25 24 21 19 19 21 24 26 25 22 17 14 11 8 8 9 10 10 9 9 8
48 48 46 42 43 42 40 41 41 39 38 37 35 32 28 27 27 25 24 25 26 25 25 24 22 21 22 23 24 26 25 22 18 15 12 10 10 11 12 11 11 11
48 45 42 42 45 43 37 38 39 37 38 39 38 36 32 30 31 31 28 25 24 24 25 26 26 24 23 23 24 25 25 23 21 21 20 17 15 17 18 16 14 12
41 40 43 46 49 47 40 36 37 35 36 39 40 39 37 35 35 36 34 30 27 26 26 27 27 26 25 23 23 24 24 22 22 22 23 22 20 21 22 21 20 17
43 41 43 46 49 50 46 42 41 40 40 41 41 39 40 40 41 41 39 35 31 30 29 28 27 26 26 25 23 23 22 22 23 22 22 23 24 23 22 23 25 23
52 47 44 44 48 51 49 47 46 45 47 50 48 43 42 43 42 42 42 38 35 33 32 31 29 27 26 24 23 23 24 24 25 23 21 23 24 25 24 23 24 24
55 53 50 48 49 49 49 50 49 48 50 52 52 49 45 44 42 42 44 42 39 36 34 33 32 29 27 26 26 26 26 27 27 25 23 23 24 24 23 23 22 23
56 55 54 52 51 51 51 50 49 50 51 50 51 49 46 44 44 45 46 45 42 40 37 34 33 31 30 29 29 29 29 29 28 27 26 26 26 25 24 24 26 28
59 58 57 55 53 52 53 52 51 52 52 51 50 50 47 46 45 44 45 45 43 42 41 39 37 36 34 33 32 32 33 32 31 29 28 28 29 30 28 28 30 33
59 59 59 55 52 52 53 54 53 53 53 52 51 50 49 46 44 42 42 43 43 42 43 42 38 34 35 37 38 36 36 36 34 33 31 31 31 32 32 31 33 36
57 57 57 55 52 53 54 54 55 55 53 52 51 50 49 46 43 42 41 42 43 44 44 42 35 29 31 37 40 40 40 39 38 38 36 35 33 33 35 36 37 40
55 54 54 54 53 54 54 55 56 55 53 52 51 50 48 45 43 43 43 42 44 45 45 42 38 33 33 37 41 42 41 39 39 39 40 40 38 37 38 40 41 43
53 52 52 53 53 53 54 54 54 53 51 49 48 48 46 44 44 44 44 43 43 44 44 44 41 39 38 38 39 40 41 39 39 39 40 41 42 41 42 42 43 43
52 52 51 51 51 51 51 51 51 50 48 46 45 45 44 43 42 43 43 43 43 42 42 43 42 42 41 39 38 38 40 41 40 41 41 41 42 43 43 44 44 44
51 51 50 49 49 49 49 49 48 46 45 44 44 44 43 41 39 40 41 42 41 39 39 40 41 42 44 43 41 40 41 42 43 45 46 46 46 45 44 45 45 44
49 49 49 48 47 48 48 47 45 43 42 42 42 43 42 40 38 39 41 41 40 38 38 39 40 42 44 45 43 42 42 43 45 47 49 49 49 48 48 48 48 46
46 46 46 46 46 47 47 45 44 42 40 40 40 40 40 39 38 38 38 38 40 40 41 41 42 43 44 45 44 43 43 45 47 50 52 52 51 50 51 52 53 53
Wind_Direction
271 278 287 291 287 282 286 291 297 302 308 313 315 318 328 331 324 321 327 332 340 351 358 6 15 17 15 16 16 16 9 351 330 314 302 292 290 269 240 231 228 227
270 273 281 286 284 280 280 283 287 293 298 304 308 310 317 327 327 318 314 317 321 336 347 354 9 13 13 16 16 17 17 8 351 330 310 281 260 253 243 233 229 229
270 270 278 284 284 281 277 277 281 285 289 294 299 299 303 315 324 322 315 311 309 316 328 337 358 9 10 15 16 17 22 22 13 358 336 312 288 266 251 240 234 232
271 271 277 284 288 284 278 276 278 280 283 284 286 289 293 302 310 314 315 313 310 309 313 321 342 1 5 10 14 16 22 29 29 24 12 350 325 298 276 261 249 241
271 273 278 285 289 288 284 281 279 280 281 278 277 279 284 290 295 299 304 312 315 312 307 309 321 338 354 4 9 11 14 23 30 32 33 26 8 345 315 295 278 262
271 273 278 284 287 286 287 285 281 281 283 279 274 272 275 282 286 288 293 300 310 313 310 308 312 317 326 344 3 5 1 5 15 23 31 37 35 27 11 344 315 290
270 273 277 282 285 284 285 286 283 282 282 280 277 272 271 278 283 284 286 290 296 304 309 310 308 309 309 315 343 2 357 353 352 357 11 22 31 34 33 29 14 334
269 275 278 281 283 282 282 284 282 280 277 277 278 274 271 275 281 284 284 284 287 291 297 302 303 304 303 301 309 332 348 351 344 337 342 351 359 9 22 30 29 17
271 277 281 281 281 280 280 281 281 277 273 273 276 276 272 273 279 286 287 283 281 282 286 292 297 299 298 295 296 301 313 334 339 332 329 337 343 347 351 359 4 4
277 280 281 281 280 279 279 280 278 275 270 269 273 274 270 272 277 283 285 282 277 275 275 279 287 290 290 290 291 291 294 304 314 317 323 332 334 335 336 336 336 336
280 282 283 283 280 277 278 278 276 273 270 267 268 267 264 264 269 272 273 274 276 274 268 270 275 278 282 285 286 286 287 293 299 298 295 301 311 317 321 325 327 328
281 280 278 276 274 272 270 272 274 274 273 269 265 261 259 258 261 264 265 268 272 272 268 268 270 272 279 285 286 283 280 285 295 293 285 283 292 304 309 311 316 318
269 265 262 261 263 264 260 259 263 264 266 268 264 258 256 257 259 261 262 264 266 268 270 271 270 270 271 276 283 283 277 278 284 287 287 286 287 291 294 298 307 310
252 253 256 258 259 260 259 257 256 254 257 262 261 256 255 259 260 257 258 261 263 264 266 267 269 271 268 266 273 277 274 274 274 277 285 288 286 285 282 285 295 300
252 252 255 258 258 258 258 257 256 253 254 258 260 259 260 260 257 254 256 260 262 263 264 263 264 268 267 263 265 267 264 266 269 270 274 279 282 280 275 278 286 292
255 254 253 254 258 258 257 256 255 255 256 258 260 261 261 257 254 254 256 259 261 260 262 265 264 264 263 260 259 259 257 258 264 268 268 268 271 273 273 276 281 283
254 254 253 252 254 257 258 257 256 256 257 258 260 261 260 257 257 259 258 257 258 257 258 263 264 261 259 256 254 256 256 256 260 265 265 263 263 266 269 269 272 275
254 254 254 254 253 255 259 260 259 257 256 257 259 261 262 260 260 262 259 255 255 255 256 259 262 263 260 255 254 256 256 256 257 260 261 261 259 259 260 262 264 267
254 255 256 256 255 254 257 259 259 259 257 257 258 259 261 262 261 262 261 256 253 252 254 256 262 266 264 259 259 259 258 258 258 258 258 258 258 256 255 256 258 259
254 255 256 257 256 254 255 256 258 259 259 258 258 259 260 262 261 259 258 256 252 250 252 254 257 262 265 265 263 261 260 260 259 258 256 255 255 255 254 252 253 255
253 254 255 255 255 255 255 255 257 258 259 259 259 259 259 260 259 256 255 255 253 252 251 252 253 256 264 270 268 263 260 260 261 260 258 255 254 254 254 253 253 256
252 252 252 253 254 255 255 256 257 258 259 259 258 258 258 258 258 257 254 254 255 255 254 253 254 255 259 265 266 260 256 259 263 263 261 258 257 256 255 255 255 257
251 252 252 252 252 254 255 256 257 257 257 257 257 257 258 259 259 258 256 256 256 257 256 254 253 251 252 257 262 258 253 254 259 262 262 262 261 260 258 258 258 260
251 252 253 254 254 255 255 256 256 256 255 254 254 255 256 259 260 259 257 256 256 255 255 254 252 249 249 254 260 260 256 252 252 256 260 262 261 259 257 256 258 260
250 251 253 254 254 255 256 257 258 258 256 255 254 254 254 257 259 259 257 255 254 250 247 248 248 247 249 253 256 258 257 253 251 253 256 257 256 253 252 252 254 256
250 250 251 252 254 255 256 258 260 261 260 258 257 257 256 255 255 255 254 253 251 247 244 245 246 246 248 251 254 255 255 252 251 251 252 253 252 251 252 255 258 259
Height
11000 11000 10999 11000 11000 11000 10999 10999 10998 10998 10997 10997 10996 10995 10994 10993 10993 10992 10991 10991 10990 10990 10988 10986 10985 10983 10982 10981 10979 10978 10977 10976 10975 10974 10974 10974 10974 10975 10975 10976 10978 10980
10998 10997 10997 10998 10998 10998 10998 10998 10997 10997 10997 10996 10995 10995 10994 10993 10992 10991 10990 10990 10990 10989 10989 10987 10985 10984 10983 10982 10980 10979 10977 10976 10975 10975 10974 10974 10974 10974 10975 10975 10977 10978
10995 10995 10996 10996 10997 10997 10997 10996 10996 10996 10996 10995 10995 10994 10994 10993 10992 10991 10991 10990 10989 10989 10989 10988 10986 10985 10984 10983 10981 10980 10979 10977 10976 10975 10975 10975 10974 10974 10974 10975 10976 10977
10992 10993 10993 10994 10995 10995 10995 10995 10994 10994 10994 10994 10993 10993 10993 10992 10991 10991 10990 10990 10989 10988 10988 10988 10987 10986 10985 10983 10982 10981 10980 10979 10977 10976 10975 10975 10974 10974 10974 10974 10975 10976
10991 10991 10991 10992 10993 10993 10993 10993 10993 10993 10992 10992 10992 10992 10992 10991 10991 10990 10989 10989 10989 10988 10988 10987 10987 10986 10985 10984 10983 10982 10981 10980 10978 10977 10976 10975 10974 10974 10974 10974 10974 10975
10988 10988 10989 10989 10990 10990 10990 10990 10990 10990 10990 10990 10990 10990 10990 10990 10989 10989 10988 10988 10988 10988 10987 10986 10986 10986 10985 10984 10983 10982 10981 10980 10979 10978 10976 10975 10974 10974 10973 10973 10973 10973
10985 10985 10986 10987 10987 10986 10986 10987 10987 10987 10987 10986 10986 10987 10987 10987 10987 10987 10987 10987 10987 10987 10986 10985 10985 10985 10984 10984 10983 10981 10981 10980 10979 10978 10977 10976 10975 10974 10973 10972 10972 10972
10982 10982 10983 10984 10984 10983 10982 10983 10983 10983 10983 10983 10984 10984 10984 10984 10985 10984 10985 10985 10985 10985 10984 10984 10984 10984 10983 10983 10982 10981 10980 10979 10978 10977 10976 10976 10975 10974 10973 10972 10971 10971
10979 10979 10979 10980 10979 10978 10978 10978 10979 10978 10979 10980 10980 10981 10981 10981 10982 10982 10982 10982 10983 10983 10983 10982 10982 10982 10981 10981 10981 10980 10979 10979 10978 10977 10976 10975 10974 10973 10973 10972 10971 10970
10977 10976 10975 10975 10974 10972 10973 10974 10974 10974 10975 10977 10977 10978 10979 10978 10979 10979 10979 10979 10979 10980 10980 10980 10980 10980 10979 10979 10978 10978 10977 10977 10977 10977 10975 10974 10973 10973 10972 10971 10970 10970
10974 10972 10971 10971 10968 10966 10967 10968 10969 10970 10971 10973 10974 10976 10976 10975 10974 10975 10974 10974 10975 10976 10977 10977 10978 10977 10976 10976 10976 10975 10975 10975 10975 10975 10974 10972 10972 10971 10971 10971 10970 10969
10970 10969 10968 10965 10958 10957 10962 10963 10965 10969 10969 10970 10970 10971 10971 10970 10970 10970 10970 10971 10971 10972 10973 10974 10974 10974 10974 10973 10973 10973 10972 10973 10973 10972 10971 10970 10970 10970 10971 10971 10969 10968
10962 10961 10957 10953 10947 10947 10954 10957 10961 10966 10967 10966 10965 10965 10965 10966 10966 10967 10967 10968 10969 10969 10970 10970 10970 10971 10970 10970 10970 10970 10970 10969 10969 10969 10968 10968 10967 10968 10969 10970 10969 10968
10951 10952 10949 10947 10944 10944 10948 10951 10955 10960 10960 10957 10956 10957 10960 10961 10961 10962 10963 10964 10965 10966 10967 10967 10967 10967 10967 10967 10967 10967 10967 10966 10965 10965 10965 10965 10965 10965 10966 10967 10967 10966
10948 10949 10948 10945 10943 10943 10945 10947 10949 10952 10952 10949 10949 10952 10955 10956 10957 10958 10958 10960 10961 10962 10962 10963 10963 10963 10963 10963 10964 10964 10963 10962 10962 10962 10962 10962 10962 10962 10963 10964 10965 10964
10943 10944 10943 10942 10939 10939 10941 10942 10944 10946 10946 10945 10946 10948 10950 10952 10953 10954 10955 10956 10957 10957 10958 10959 10959 10960 10960 10960 10960 10959 10959 10959 10959 10959 10959 10959 10960 10960 10961 10962 10962 10961
10936 10936 10936 10937 10936 10935 10935 10937 10939 10940 10940 10941 10942 10943 10945 10947 10948 10949 10950 10951 10952 10953 10954 10954 10955 10955 10955 10955 10955 10954 10954 10954 10955 10955 10956 10956 10957 10957 10958 10958 10957 10956
10929 10929 10929 10931 10932 10931 10930 10931 10933 10934 10935 10936 10937 10937 10939 10941 10943 10944 10945 10946 10948 10948 10948 10949 10949 10950 10950 10950 10950 10949 10949 10950 10951 10952 10952 10953 10953 10954 10953 10952 10952 10951
10923 10923 10924 10926 10928 10927 10926 10926 10927 10928 10930 10931 10932 10933 10934 10936 10939 10940 10940 10940 10941 10942 10942 10942 10943 10945 10945 10944 10944 10945 10945 10945 10947 10947 10948 10949 10949 10949 10948 10947 10946 10944
10918 10918 10918 10920 10922 10922 10922 10922 10922 10923 10924 10926 10927 10928 10929 10931 10933 10934 10934 10934 10934 10935 10935 10936 10938 10940 10939 10937 10938 10939 10939 10940 10941 10942 10943 10944 10944 10944 10943 10941 10940 10939
10913 10914 10914 10914 10915 10916 10916 10917 10917 10917 10919 10920 10922 10923 10924 10926 10927 10927 10928 10928 10928 10929 10930 10932 10933 10934 10933 10932 10932 10933 10933 10934 10935 10935 10936 10938 10939 10939 10938 10936 10935 10935
10908 10908 10909 10909 10909 10910 10911 10911 10912 10912 10913 10914 10916 10917 10918 10920 10921 10922 10923 10923 10923 10924 10925 10927 10929 10929 10929 10928 10927 10927 10927 10928 10929 10929 10930 10932 10933 10933 10932 10931 10931 10930
10902 10902 10903 10904 10904 10905 10905 10906 10906 10907 10908 10909 10910 10911 10912 10914 10916 10917 10917 10918 10918 10919 10920 10921 10922 10923 10924 10923 10922 10922 10922 10923 10923 10923 10924 10926 10927 10927 10926 10925 10924 10925
10896 10897 10897 10898 10899 10900 10900 10900 10901 10902 10903 10904 10905 10906 10908 10910 10911 10911 10912 10912 10913 10914 10915 10916 10916 10917 10918 10918 10917 10917 10917 10917 10917 10917 10918 10919 10920 10920 10920 10919 10918 10919
10892 10892 10893 10893 10893 10894 10895 10895 10896 10897 10898 10899 10900 10902 10904 10906 10908 10907 10906 10906 10907 10909 10910 10910 10911 10912 10912 10912 10911 10911 10912 10912 10912 10912 10913 10913 10913 10914 10913 10912 10912 10913
10888 10888 10888 10888 10889 10889 10890 10890 10891 10892 10893 10894 10895 10896 10899 10901 10903 10903 10901 10900 10900 10902 10903 10904 10905 10906 10905 10905 10905 10905 10905 10906 10906 10906 10907 10907 10907 10907 10907 10905 10905 10906